Location: Siloam Springs
(36.1880°N, 94.5400°W)
Time: 23:24:57
(UTC-05:00)

ISS - Visible Passes

Search period start: 20 May 2026 00:00
Search period end: 30 May 2026 00:00
Orbit: 414 x 424 km, 51.6° (Epoch: 20 May)

Date Brightness Start Highest point End Pass type
(mag) Time Alt. Az. Time Alt. Az. Time Alt. Az.
20 May -1.0 23:27:16 10° NW 23:28:25 19° NNW 23:28:25 19° NNW visible
21 May -2.1 22:39:45 10° NNW 22:42:23 27° NNE 22:42:23 27° NNE visible
22 May -1.6 21:52:22 10° NNW 21:54:49 19° NNE 21:56:23 14° ENE visible
22 May -0.9 23:28:33 10° WNW 23:29:19 16° WNW 23:29:19 16° WNW visible
23 May -1.2 21:05:10 10° N 21:06:52 13° NNE 21:08:35 10° NE visible
23 May -3.0 22:40:45 10° NW 22:43:20 51° NW 22:43:20 51° NW visible
24 May -3.1 21:53:06 10° NW 21:56:20 45° NE 21:57:24 32° E visible
25 May -2.3 21:05:34 10° NNW 21:08:29 27° NNE 21:11:23 10° E visible
25 May -1.9 22:42:21 10° WNW 22:44:27 24° WSW 22:44:27 24° WSW visible
26 May -3.3 21:54:18 10° WNW 21:57:32 50° SW 21:58:36 34° S visible
27 May -3.8 21:06:27 10° NW 21:09:48 83° NE 21:12:48 12° SE visible
28 May -1.4 21:56:29 10° W 21:58:29 15° SW 22:00:01 12° SSW visible
29 May -2.1 21:07:57 10° WNW 21:10:50 27° SW 21:13:42 10° SSE visible
